Tracking 29892 objects as of 21-Nov-2024
HD Live streaming from Space Station
objects crossing your sky now

STARLINK-5721

Track STARLINK-5721 now!
10-day predictions
STARLINK-5721 is classified as:


NORAD ID: 55617
Int'l Code: 2023-020BA
Perigee: 566.0 km
Apogee: 566.3 km
Inclination: 43.0 °
Period: 95.8 minutes
Semi major axis: 6937 km
RCS: Unknown
Launch date: February 12, 2023
Source: United States (US)
Launch site: AIR FORCE EASTERN TEST RANGE (AFETR)
Your satellite tracking list
Your tracking list is empty




NASA's NSSDC Master Catalog

Two Line Element Set (TLE):
1 55617U 23020BA  24325.72546661 -.00000958  00000-0 -55821-4 0  9993
2 55617  43.0037  46.9784 0000252 230.9456 129.1364 15.02550354 97775
Source of the keplerian elements: AFSPC